NETSAT-3

Last updated on Wed Nov 05 2025 00:03:48 GMT+0000 (Coordinated Universal Time)

1 46505U 20068V 25308.46013939 .00017968 00000+0 55575-3 0 9999 2 46505 97.8593 293.7945 0008853 64.2008 296.0146 15.33525319281136
UTC large
Height (km)
Speed (km/s)
/
Latitude / Longitude
Inclination (degrees)
Orbital Period (minutes)
Azimuth
Elevation
Range (km)
Doppler Factor

Next 0 passes for location: London (51.5072 / 0.1276)

Sorry there are no passes over London.